Location: Kawakawa
(35.3830°S, 174.0670°E)
Time: 16:12:42
(UTC+13:00)

S-56A Canister/Altair - Visible Passes

Search period start: 16 December 2019 00:00
Search period end: 26 December 2019 00:00
Orbit: 632 x 2500 km, 38.9° (Epoch: 14 December)

Date Brightness Start Highest point End Pass type
(mag) Time Alt. Az. Time Alt. Az. Time Alt. Az.
16 Dec10.301:39:59E01:39:59E01:27:21WSWvisible
16 Dec 7.9 03:37:33 46° N 03:37:33 46° N 03:42:29 10° NE visible
16 Dec 7.4 22:50:56 10° W 22:56:26 75° SSW 22:59:26 21° ESE visible
17 Dec 9.5 00:55:50 10° WSW 00:56:53 16° WSW 00:56:53 16° WSW visible
17 Dec 9.6 03:08:24 16° NE 03:08:24 16° NE 03:09:34 10° NE visible
17 Dec 9.2 05:05:59 13° NW 05:07:44 15° NNW 05:11:25 10° N visible
17 Dec 7.5 22:17:54 10° WNW 22:23:52 83° SSW 22:28:30 10° ESE visible
18 Dec 8.5 00:23:06 10° WSW 00:26:12 36° SW 00:26:12 36° SW visible
18 Dec 9.4 04:36:56 15° N 04:36:56 15° N 04:38:57 10° N visible
18 Dec 7.6 21:44:46 10° WNW 21:51:16 89° NNE 21:56:03 10° ESE visible
18 Dec 7.7 23:50:16 10° WSW 23:55:14 56° S 23:55:21 55° S visible
19 Dec 7.8 21:11:33 10° WNW 21:18:39 82° NNE 21:23:40 10° ESE visible
19 Dec 7.8 23:17:20 10° W 23:22:38 57° S 23:24:24 34° ESE visible
20 Dec 7.9 22:44:17 10° W 22:50:02 59° S 22:53:25 18° ESE visible
21 Dec 9.2 00:49:14 10° WSW 00:50:50 20° WSW 00:50:50 20° WSW visible
21 Dec 8.0 22:11:07 10° W 22:17:24 62° S 22:22:07 10° ESE visible
22 Dec 8.3 00:16:28 10° WSW 00:19:46 40° WSW 00:19:46 40° WSW visible
22 Dec 8.1 21:37:50 10° W 21:44:45 66° S 21:49:42 10° ESE visible
22 Dec 7.4 23:43:37 10° WSW 23:48:41 69° S 23:48:41 69° S visible
23 Dec 8.3 21:04:27 10° W 21:12:04 71° SSW 21:17:18 10° ESE visible
23 Dec 7.6 23:10:39 10° WSW 23:16:18 67° S 23:17:36 46° ESE visible
24 Dec 7.8 22:37:33 10° WSW 22:43:41 64° S 22:46:29 25° E visible
25 Dec 9.5 00:42:38 10° WSW 00:43:53 17° W 00:43:53 17° W visible
25 Dec 8.0 22:04:19 10° WSW 22:11:02 63° S 22:15:22 13° E visible
